Dewpoint
74 75 75 74 74 74 75 75 75 75 76 75 75 75 75 75 76 76 76 76 76 75 76 76 76 76 76 75 75 75 76 76 76 76 76 75 76 76 76 76 75 75 75 75 75 75 75 76 76 76 75 76 75 75 75 76 76 75 75 75 75 75 74 74 74 73 72 73 75 75 75 75 74 73 73 73 72 72 71 71 71 69 71 72 73
74 75 74 74 74 74 75 75 75 75 75 75 75 75 76 76 76 76 76 75 76 76 75 75 75 75 75 76 76 76 76 76 75 76 75 75 75 75 75 75 74 74 76 75 75 74 75 76 76 75 75 76 76 76 76 76 75 75 75 75 75 74 74 74 73 73 72 73 75 75 75 74 74 74 72 72 72 71 71 70 70 70 71 73 73
73 73 74 74 74 75 75 75 75 75 75 75 76 76 76 77 76 76 75 76 75 75 74 74 74 74 75 75 75 75 75 75 75 75 75 74 75 75 75 75 75 75 75 74 74 74 74 76 75 75 75 75 75 76 76 76 75 75 75 75 74 74 74 74 73 73 72 74 74 75 75 75 74 74 73 73 73 73 73 72 72 72 70 72 73
73 73 73 74 75 75 75 75 75 75 76 76 76 76 76 76 76 76 76 76 75 74 74 74 74 75 75 75 75 74 74 75 75 75 75 75 75 75 74 75 75 75 74 74 75 75 75 75 75 75 75 75 75 75 75 75 75 75 75 75 75 75 75 74 74 73 72 73 74 74 73 73 73 74 74 74 74 74 74 74 74 74 73 73 73
71 73 73 74 74 75 75 75 75 76 76 76 76 76 76 76 76 76 76 75 74 74 74 74 74 75 74 74 75 75 74 74 74 75 75 75 75 75 75 75 75 75 75 75 75 75 74 75 75 75 75 75 75 75 74 75 76 75 75 75 75 74 74 74 73 73 73 73 73 73 73 72 73 73 74 74 74 74 74 73 73 73 73 73 73
73 73 74 74 74 74 75 75 76 76 76 76 76 76 76 76 76 76 75 75 74 74 74 74 74 74 74 74 75 75 74 74 75 75 75 75 75 75 75 75 75 75 75 74 75 75 75 75 75 74 75 75 75 75 75 75 75 75 75 75 75 75 74 74 74 73 73 73 73 73 72 72 72 72 74 74 73 73 73 73 73 72 73 72 72
72 73 72 73 74 74 75 75 76 76 76 76 76 76 76 76 76 75 75 74 75 75 74 74 74 74 74 75 75 75 75 75 75 75 75 74 75 75 75 75 75 75 75 75 75 74 74 75 75 75 75 74 75 75 75 75 75 75 75 74 74 74 74 73 74 74 72 73 74 74 72 71 71 72 74 73 73 73 73 72 72 72 72 72 72
72 72 72 72 73 74 75 76 76 76 76 76 76 76 76 76 76 75 75 76 75 74 74 75 75 75 75 74 74 75 75 74 75 75 75 75 75 75 75 75 76 76 75 75 75 74 74 74 75 75 75 75 75 75 75 74 74 74 74 73 73 73 73 73 74 74 74 74 72 73 73 73 73 71 73 74 74 73 73 72 72 72 71 71 71
71 71 71 71 73 75 75 76 76 76 76 76 76 76 76 76 75 75 75 76 75 75 75 75 75 75 75 75 75 75 75 75 75 75 75 75 75 76 75 75 75 75 75 74 75 75 74 75 75 75 75 75 75 75 75 74 74 74 74 73 73 73 73 74 74 73 73 74 74 73 73 72 71 72 73 73 73 73 73 73 73 72 72 72 72
70 71 71 72 74 76 76 75 76 76 76 76 76 75 76 76 76 75 75 75 75 75 75 75 75 75 74 74 74 75 75 75 75 74 75 75 75 75 76 75 75 75 75 74 75 74 75 74 74 75 75 74 75 75 74 74 74 75 75 75 75 74 73 74 75 73 73 74 73 72 73 74 72 72 73 73 73 72 73 74 73 73 72 73 73
70 71 72 72 74 76 76 76 75 75 76 76 76 75 76 75 76 76 75 75 75 75 75 75 75 75 74 74 74 75 75 75 75 75 75 75 75 75 75 75 75 75 74 74 74 75 75 75 74 75 74 74 74 74 74 74 74 74 74 75 75 74 74 74 74 72 73 73 73 73 73 74 72 72 73 73 73 74 74 73 73 72 72 73 74
69 72 74 74 77 76 76 75 75 75 76 75 75 76 76 76 75 76 75 74 75 74 75 75 75 75 75 74 74 75 75 75 75 75 75 75 75 75 75 75 75 75 74 75 74 75 74 74 74 74 74 74 74 74 74 74 74 74 75 75 75 75 74 74 74 74 73 73 73 72 71 70 71 71 73 73 73 73 73 73 73 72 73 73 73
71 71 73 73 73 76 75 75 75 75 75 75 76 76 76 76 75 75 75 75 75 75 74 75 75 75 75 74 74 75 75 75 75 75 75 75 75 75 75 75 75 75 75 74 75 74 74 74 74 74 74 74 74 74 74 74 74 73 74 75 75 75 74 75 73 73 73 72 73 72 70 71 72 74 73 73 73 73 73 73 72 72 72 72 72
69 72 71 71 72 76 75 75 75 76 76 76 76 76 76 76 75 76 75 74 75 75 75 75 75 75 74 75 75 75 75 75 75 75 75 75 75 75 75 75 75 75 74 74 74 74 75 74 74 74 74 74 74 74 74 74 74 74 74 74 74 74 75 72 71 71 72 72 72 71 71 71 72 74 73 73 73 73 73 73 73 73 72 72 73
70 71 70 68 71 73 76 76 76 76 76 76 76 76 76 76 75 75 76 75 75 75 75 75 75 75 74 75 75 75 75 75 75 75 75 75 75 75 75 75 75 74 74 74 74 74 75 74 75 74 74 74 74 74 75 74 74 74 75 74 74 72 68 64 67 70 69 69 69 70 70 72 73 73 73 73 73 73 73 72 73 72 72 73 72
70 69 67 65 69 74 75 77 76 76 76 76 76 76 76 76 76 75 76 76 75 75 75 75 75 75 74 74 74 74 75 75 75 75 75 75 75 75 75 75 75 75 75 74 74 75 75 74 74 74 74 75 75 75 75 75 74 75 75 74 73 72 71 68 69 70 69 69 69 70 70 72 74 73 73 73 72 73 73 73 72 72 72 72 72
69 67 63 65 68 70 71 74 76 76 76 76 76 76 76 76 76 75 75 75 75 75 75 75 74 74 74 74 75 75 74 75 75 75 75 75 75 75 75 75 75 75 75 75 75 75 75 75 74 75 75 74 74 75 75 75 75 75 75 74 73 71 68 70 69 70 71 71 68 70 71 72 74 73 72 73 73 73 73 73 72 73 73 73 73
68 66 64 65 66 67 68 73 74 75 77 76 76 75 76 76 75 75 75 75 75 75 75 75 75 74 75 74 75 75 75 75 75 75 75 75 75 75 75 75 74 75 75 74 75 75 75 75 75 75 75 75 74 75 75 75 75 75 74 74 73 72 71 69 69 70 70 70 69 70 71 73 74 74 73 73 74 74 73 73 73 73 73 73 73
64 62 62 63 64 67 67 73 75 74 76 76 77 76 75 75 75 75 76 76 76 75 75 75 75 75 75 75 75 75 75 75 75 75 75 75 75 75 75 75 75 76 75 74 75 75 75 75 75 74 75 75 75 75 75 75 75 74 74 73 73 71 72 67 69 70 70 70 70 70 72 75 74 74 74 74 74 74 74 74 73 73 73 73 73
63 62 61 63 64 67 72 74 75 74 75 75 76 76 75 75 75 75 76 76 76 75 75 75 75 75 76 75 75 75 75 75 76 75 76 75 74 74 75 76 76 75 75 75 75 76 75 75 74 75 75 75 75 75 75 75 75 74 74 74 74 72 71 67 67 67 68 69 71 72 74 74 74 74 74 74 74 74 73 73 73 73 73 73 73
62 63 64 64 64 71 72 73 74 74 73 73 75 75 75 75 75 75 76 76 76 76 76 76 76 75 75 76 75 76 76 75 75 75 75 75 75 75 76 76 76 76 75 75 76 76 76 75 75 75 76 75 75 75 75 75 74 74 74 75 74 75 69 69 67 69 69 70 71 72 75 74 74 74 74 74 74 74 74 74 73 73 73 73 73
65 67 67 65 65 72 73 72 73 75 74 74 74 75 74 75 75 77 77 76 76 76 77 76 75 76 75 76 76 75 75 76 75 75 75 74 74 76 76 76 76 76 75 75 75 75 75 76 75 75 76 76 76 74 74 74 74 74 74 74 75 70 71 69 69 69 69 70 72 73 75 73 73 74 74 74 74 74 74 74 74 73 73 73 72
66 68 68 66 66 72 71 71 73 74 74 74 73 75 76 76 77 76 76 76 77 76 75 75 76 76 74 74 78 76 74 76 75 74 75 74 74 75 76 76 76 76 76 76 75 75 76 76 76 76 76 76 76 70 70 70 72 75 75 74 67 69 70 69 69 69 70 70 72 74 74 73 73 73 74 74 74 74 74 74 73 73 73 73 73
66 67 68 66 67 68 73 72 73 74 74 74 75 75 76 76 75 76 75 75 75 76 75 75 76 76 75 75 75 76 75 76 76 75 75 74 75 76 76 76 76 76 76 76 76 76 76 76 76 76 76 75 72 67 65 66 67 71 68 64 65 66 67 67 68 71 71 71 72 75 75 74 74 73 73 73 74 74 74 74 74 73 73 73 73
67 68 69 67 66 67 71 74 75 73 75 76 74 75 76 75 75 75 76 75 75 74 75 74 74 73 74 76 73 72 72 74 76 76 76 73 73 75 75 75 74 75 75 75 74 75 75 75 76 76 73 70 67 67 66 64 65 62 62 63 63 64 62 65 64 66 70 72 74 75 75 74 74 73 73 73 74 74 74 74 74 73 73 73 73
66 68 69 68 65 65 69 72 72 74 74 74 73 74 76 75 75 75 76 75 72 72 72 73 72 72 70 74 73 74 76 75 76 76 77 76 77 77 73 76 74 74 75 76 73 74 75 73 74 74 69 69 69 68 65 67 64 65 63 65 64 65 65 63 64 65 69 71 75 75 75 74 74 73 73 73 73 73 74 74 73 73 73 73 73
65 67 68 69 65 63 68 71 71 72 72 74 73 74 75 73 76 75 73 71 72 72 70 71 72 72 70 71 70 73 74 75 76 76 76 73 72 76 74 75 74 74 74 75 74 74 74 69 69 70 69 66 67 69 68 66 66 63 65 64 65 64 65 63 64 65 68 71 74 75 75 74 74 74 74 73 74 73 73 73 73 73 73 73 73
65 65 67 67 65 62 67 72 73 73 74 75 74 72 74 71 71 73 72 71 70 68 69 69 72 72 72 70 69 71 69 69 70 74 70 70 70 70 69 70 69 70 70 71 72 73 71 71 72 70 69 70 67 67 66 67 67 68 66 66 66 66 66 64 67 67 68 70 73 75 75 74 74 74 73 73 73 74 74 74 73 73 73 73 73
62 63 65 65 64 63 64 70 72 74 74 72 71 71 71 72 71 70 70 71 69 67 68 71 71 72 72 72 71 67 68 69 70 70 70 71 71 71 73 68 68 69 71 68 70 71 71 72 76 71 72 72 68 67 68 67 69 68 66 66 65 67 66 67 68 66 67 70 70 73 74 74 74 74 74 73 73 72 73 73 73 73 73 72 73
61 62 64 64 64 62 63 69 72 73 73 70 72 71 72 71 72 71 71 71 69 69 71 68 70 70 71 74 71 67 68 68 71 71 72 73 73 70 71 70 72 73 70 72 73 73 72 72 74 74 70 68 68 68 66 65 64 66 67 68 65 63 68 66 68 67 68 69 69 71 74 74 73 74 73 73 73 73 73 72 73 73 72 72 72
60 61 62 63 65 60 62 69 71 73 72 70 72 73 73 72 72 70 71 71 71 72 70 69 69 70 73 75 75 73 68 68 71 71 71 72 72 72 70 71 70 70 73 71 72 72 70 72 74 73 71 69 68 67 65 68 68 66 66 64 65 67 65 66 63 63 63 68 70 71 72 74 74 74 73 74 73 73 73 73 73 72 73 72 72
59 59 62 64 62 60 64 68 70 72 72 71 73 72 73 72 72 71 71 72 72 70 70 71 72 71 73 74 75 74 73 73 73 73 72 73 74 71 72 71 69 72 73 72 72 72 71 72 73 72 71 70 69 68 68 66 67 64 66 64 66 66 66 66 60 61 62 67 70 72 72 72 74 74 74 74 74 73 74 74 73 73 73 72 72
58 59 62 62 59 61 66 69 69 72 71 69 70 71 72 70 71 71 72 70 72 70 69 71 72 74 76 76 75 76 76 75 75 73 72 71 72 76 72 72 72 73 72 72 72 72 71 71 72 71 70 70 68 68 67 66 67 67 65 64 65 66 68 67 66 63 62 65 67 68 71 73 72 75 74 74 75 74 74 74 74 73 73 73 73
58 60 61 61 60 62 66 67 69 70 70 68 70 69 70 70 71 70 71 71 69 69 70 72 72 73 75 77 77 77 75 75 75 76 71 71 72 72 72 71 72 73 74 74 72 74 70 69 68 68 70 71 67 68 65 66 66 66 65 64 67 68 68 64 65 63 64 63 66 69 68 70 72 74 74 75 74 74 74 74 74 74 74 74 74
59 60 59 61 61 64 64 66 69 69 70 70 69 70 70 69 70 70 70 72 70 69 68 71 73 74 74 75 76 78 78 78 78 76 72 74 72 70 71 72 73 73 71 73 71 70 71 70 72 68 70 68 66 68 67 67 65 66 68 67 65 66 66 65 66 65 65 68 68 66 68 68 70 70 74 75 75 75 75 74 75 75 75 75 74
59 61 60 61 61 64 66 66 67 69 71 71 72 71 70 70 70 70 71 72 69 69 68 69 71 75 75 75 79 78 79 79 78 77 73 72 69 70 71 74 75 73 73 73 73 72 72 73 70 69 69 65 67 67 67 67 66 65 66 67 67 68 66 66 66 63 64 68 68 67 68 69 69 69 69 69 73 75 76 75 75 75 75 75 75
60 61 62 62 62 63 65 65 66 67 71 69 71 72 71 71 72 70 69 72 69 69 68 69 70 71 75 72 76 76 79 78 78 78 77 72 70 71 71 74 75 74 74 74 72 71 74 68 72 72 70 70 66 62 65 67 65 63 64 64 65 68 67 69 65 64 62 67 68 62 65 68 69 68 70 68 70 75 77 77 76 76 75 76 75
61 61 62 62 61 63 64 64 66 66 69 71 72 71 72 72 71 71 71 70 67 67 69 70 70 71 75 73 76 76 76 79 79 78 77 72 72 72 73 75 75 75 75 73 72 71 71 71 72 74 71 72 66 66 64 64 62 61 63 62 67 64 65 67 67 67 66 65 65 64 66 65 67 65 65 68 66 69 72 76 78 77 77 77 77
61 61 63 64 62 63 64 66 65 66 68 70 73 72 72 72 69 71 69 71 71 67 69 70 69 70 70 75 77 75 77 78 77 76 77 72 72 73 74 75 74 75 75 73 72 73 72 71 71 71 72 72 69 69 67 66 64 61 60 61 63 66 67 65 68 65 65 63 62 65 61 66 65 66 68 68 65 68 67 74 74 75 75 77 77
61 64 65 64 65 65 66 67 67 65 68 71 72 70 69 69 67 68 69 70 71 70 71 69 70 69 72 73 76 77 76 78 77 78 77 75 74 74 75 74 74 74 75 72 71 72 72 74 71 73 72 69 70 70 67 66 65 64 63 63 64 65 66 66 65 65 66 63 64 66 62 62 65 65 64 66 65 64 68 70 71 69 70 76 78
62 64 65 64 65 65 67 68 67 68 69 69 69 67 68 68 68 66 65 66 69 71 70 70 69 69 72 73 75 74 76 77 77 78 76 74 75 74 76 74 73 75 74 73 73 73 75 75 72 74 71 70 68 66 64 66 66 67 67 63 65 65 65 63 65 63 62 62 62 61 61 66 65 66 66 66 66 66 68 71 70 71 71 76 77
63 65 66 64 66 65 67 68 67 69 69 68 68 68 69 67 67 66 64 64 68 68 69 71 68 69 74 75 74 74 76 77 77 78 78 77 76 74 75 75 75 75 77 77 75 74 75 76 74 69 70 69 67 64 63 64 64 60 62 63 63 65 65 64 62 61 62 61 60 62 64 61 60 63 65 68 69 67 66 69 72 70 70 71 71
63 63 66 65 65 65 68 68 68 69 69 68 68 69 69 68 67 66 64 64 67 68 67 69 69 69 70 72 75 76 75 76 77 77 75 76 75 75 74 75 75 73 73 74 75 77 75 74 74 74 67 67 67 66 66 67 61 63 65 65 62 62 64 63 62 60 60 59 60 58 60 59 56 62 64 67 68 71 65 66 69 68 70 71 71
63 63 64 65 63 67 69 69 69 69 70 69 70 69 69 70 70 68 68 68 67 68 70 71 70 70 68 69 73 74 75 74 74 73 74 77 76 75 73 73 74 76 77 76 76 77 75 73 71 69 71 65 63 64 66 66 66 64 64 63 61 60 59 62 62 60 58 59 59 57 58 61 59 60 66 66 62 66 65 67 68 71 72 72 72
63 64 63 63 61 64 68 70 70 69 70 70 71 70 71 71 71 70 70 71 69 67 69 68 70 70 68 68 70 73 73 74 74 75 73 77 77 76 75 74 75 74 75 74 74 71 72 72 74 72 70 67 64 64 65 64 65 67 67 66 63 61 61 60 57 61 58 55 57 56 51 60 59 59 61 62 59 64 63 65 68 69 71 72 74
64 64 63 62 63 63 68 71 70 69 69 71 72 71 72 72 70 70 68 69 70 68 67 68 66 67 65 67 70 69 71 73 74 74 73 75 76 78 76 74 75 74 75 72 72 71 72 72 71 70 68 68 72 66 62 65 65 69 67 65 66 65 63 63 61 60 65 58 53 51 58 59 58 60 64 63 58 62 64 64 66 68 69 69 68
64 64 63 63 63 64 68 70 71 70 69 72 73 72 73 72 71 69 68 68 68 68 69 66 66 66 67 69 70 70 73 72 73 74 75 76 77 78 78 76 74 74 74 74 72 70 67 70 71 71 71 72 70 71 67 62 67 67 64 63 65 65 63 63 62 61 61 61 61 57 55 58 58 58 58 59 60 61 62 63 63 63 67 69 70
63 63 63 63 65 67 69 71 71 70 70 72 73 73 73 72 71 70 68 68 65 68 69 68 68 70 69 69 71 71 73 73 73 75 77 76 78 77 78 77 75 73 72 73 71 70 73 73 73 75 75 73 74 70 70 66 68 68 66 67 65 63 64 63 62 62 62 61 60 59 57 57 59 57 58 58 58 59 61 63 64 64 67 70 71
63 64 63 64 65 67 70 71 71 72 71 73 73 73 73 72 71 70 69 69 68 67 69 68 68 72 70 70 72 71 73 72 76 74 76 75 76 76 77 77 74 74 72 72 71 71 72 74 73 75 74 72 72 73 71 72 68 66 68 71 69 64 62 62 61 63 62 61 57 58 58 57 60 57 60 60 59 61 63 62 56 64 71 72 72
63 65 65 66 66 68 71 71 71 71 71 73 74 73 72 73 72 70 70 70 70 72 71 69 70 73 72 72 73 74 71 72 74 77 76 76 75 76 76 75 75 72 71 71 72 74 75 76 73 74 75 75 75 72 69 71 69 70 66 68 70 68 66 63 61 61 60 64 61 58 59 59 60 59 63 61 60 61 61 62 65 64 68 71 72
65 66 65 66 68 69 71 72 72 71 72 73 74 73 73 73 72 71 71 71 72 72 73 71 70 73 72 71 72 73 72 71 71 73 77 73 75 75 74 73 72 72 74 73 74 71 71 72 72 76 74 75 73 73 72 71 71 71 69 67 70 65 66 64 65 64 62 62 62 59 57 57 58 60 62 60 61 60 59 63 62 64 70 71 74